Tracking 34401 objects as of 17-Jun-2026
HD Live streaming from Space Station
objects crossing your sky now

THORAD AGENA D DEB

Track THORAD AGENA D DEB now!
10-day predictions


NORAD ID: 4921
Int'l Code: 1970-025FT
Perigee: 689.0 km
Apogee: 742.8 km
Inclination: 99.7 °
Period: 99.0 minutes
Semi major axis: 7086 km
RCS: 0.0571 m2 (small)
Launch date: April 8, 1970
Source: United States (US)
Launch site: AIR FORCE WESTERN TEST RANGE (AFWTR)

Note: This is SATELLITE DEBRIS
Your satellite tracking list
Your tracking list is empty




NASA's NSSDC Master Catalog

Two Line Element Set (TLE):
1 04921U 70025FT  26167.40726053  .00005451  00000-0  12617-2 0  9993
2 04921  99.7375 341.6505 0038000  85.5621 274.9911 14.55185802875473
Source of the keplerian elements: AFSPC